Weather History for Clermont County, Batavia, OH

Change the Weather History Date:

Wednesday, December 18, 2013

  Actual Average (KLUK) Record (KLUK)
Temperature  
Mean Temperature 32 °F -  
Max Temperature 37 °F 40 °F 65 °F (1967)
Min Temperature 28 °F 24 °F -2 °F (1989)
Degree Days  
Heating Degree Days 32    
Moisture  
Dew Point 21 °F    
Average Humidity 65    
Maximum Humidity 93    
Minimum Humidity 45    
Precipitation  
Precipitation 0.00 in - - ()
Sea Level Pressure  
Sea Level Pressure 30.18 in    
Wind  
Wind Speed 7 mph (SW)    
Max Wind Speed 14 mph    
Max Gust Speed 20 mph    
Visibility 10 miles    
Events      
Averages and records for this station are not official NWS values.
T = Trace of Precipitation, MM = Missing Value Source: NWS Daily Summary

Daily Weather History Graph

Daily Weather History Graph

Search for Another Location

Airport:

Trip Planner

Search our weather history database for the weather conditions in past years. The results will help you decide how hot, cold, wet, or windy it might be!

Date:

Astronomy

Dec. 18, 2013 Rise Set
Actual Time 7:50 AM EST 5:16 PM EST
Civil Twilight 7:20 AM EST 5:46 PM EST
Nautical Twilight 6:47 AM EST 6:20 PM EST
Astronomical Twilight 6:14 AM EST 6:52 PM EST
Moon 6:46 PM EST (12/18) 8:30 AM EST (12/18)
Length of Visible Light 10h 25m
Length of Day
9h 25m
Full, 98% of the Moon is Illuminated
Dec 18
Full
Dec 25
Last Quarter
Jan 1
New
Jan 7
First Quarter
Jan 15
Full

Hourly Weather History & Observations

Time (EST) Temp. Windchill Dew Point Humidity Pressure Visibility Wind Dir Wind Speed Gust Speed Precip Events Conditions
12:15 AM 32.0 °F 26.4 °F 26.6 °F 80% 30.17 in 10.0 mi WSW 5.8 mph - N/A   Clear
12:34 AM 32.0 °F 24.8 °F 26.6 °F 80% 30.17 in 10.0 mi WSW 8.1 mph - N/A   Mostly Cloudy
12:54 AM 32.0 °F 24.8 °F 26.6 °F 80% 30.16 in 10.0 mi SW 8.1 mph - N/A   Overcast
1:15 AM 32.0 °F 26.4 °F 26.6 °F 80% 30.16 in 10.0 mi SW 5.8 mph - N/A   Mostly Cloudy
1:34 AM 32.0 °F 25.6 °F 28.4 °F 87% 30.15 in 10.0 mi SW 6.9 mph - N/A   Mostly Cloudy
1:54 AM 30.2 °F 21.9 °F 28.4 °F 93% 30.16 in 10.0 mi WSW 9.2 mph - N/A   Mostly Cloudy
2:15 AM 30.2 °F 24.3 °F 28.4 °F 93% 30.16 in 10.0 mi WSW 5.8 mph - N/A   Scattered Clouds
2:34 AM 30.2 °F 24.3 °F 28.4 °F 93% 30.16 in 10.0 mi SW 5.8 mph - N/A   Scattered Clouds
2:54 AM 30.2 °F 23.4 °F 28.4 °F 93% 30.16 in 10.0 mi WSW 6.9 mph - N/A   Clear
3:15 AM 30.2 °F 24.3 °F 28.4 °F 93% 30.17 in 7.0 mi WSW 5.8 mph - N/A   Clear
3:34 AM 30.2 °F 23.4 °F 28.4 °F 93% 30.17 in 7.0 mi WSW 6.9 mph - N/A   Clear
3:54 AM 30.2 °F 23.4 °F 26.6 °F 86% 30.17 in 7.0 mi WSW 6.9 mph - N/A   Clear
4:15 AM 30.2 °F 24.3 °F 26.6 °F 86% 30.17 in 7.0 mi WSW 5.8 mph - N/A   Clear
4:34 AM 28.4 °F 22.2 °F 26.6 °F 93% 30.17 in 10.0 mi WSW 5.8 mph - N/A   Clear
4:54 AM 28.4 °F 20.4 °F 26.6 °F 93% 30.17 in 10.0 mi WSW 8.1 mph - N/A   Clear
5:15 AM 28.4 °F 21.2 °F 26.6 °F 93% 30.18 in 10.0 mi West 6.9 mph - N/A   Clear
5:34 AM 28.4 °F 22.2 °F 23.0 °F 80% 30.18 in 10.0 mi West 5.8 mph - N/A   Clear
5:55 AM 28.4 °F 23.3 °F 23.0 °F 80% 30.19 in 10.0 mi WSW 4.6 mph - N/A   Scattered Clouds
6:15 AM 28.4 °F 20.4 °F 23.0 °F 80% 30.20 in 10.0 mi West 8.1 mph - N/A   Clear
6:34 AM 28.4 °F 21.2 °F 23.0 °F 80% 30.20 in 10.0 mi West 6.9 mph - N/A   Scattered Clouds
6:55 AM 28.4 °F 23.3 °F 23.0 °F 80% 30.21 in 10.0 mi WSW 4.6 mph - N/A   Scattered Clouds
7:15 AM 28.4 °F 23.3 °F 23.0 °F 80% 30.21 in 10.0 mi WSW 4.6 mph - N/A   Mostly Cloudy
7:34 AM 28.4 °F 20.4 °F 23.0 °F 80% 30.22 in 10.0 mi West 8.1 mph - N/A   Overcast
7:55 AM 28.4 °F 22.2 °F 23.0 °F 80% 30.22 in 10.0 mi West 5.8 mph - N/A   Overcast
8:15 AM 28.4 °F 21.2 °F 21.2 °F 74% 30.23 in 10.0 mi West 6.9 mph - N/A   Mostly Cloudy
8:34 AM 28.4 °F 23.3 °F 21.2 °F 74% 30.23 in 10.0 mi West 4.6 mph - N/A   Mostly Cloudy
8:55 AM 28.4 °F 23.3 °F 21.2 °F 74% 30.24 in 10.0 mi West 4.6 mph - N/A   Mostly Cloudy
9:15 AM 30.2 °F 25.4 °F 23.0 °F 75% 30.24 in 10.0 mi WSW 4.6 mph - N/A   Mostly Cloudy
9:34 AM 30.2 °F 20.8 °F 23.0 °F 75% 30.24 in 10.0 mi West 11.5 mph - N/A   Mostly Cloudy
9:55 AM 30.2 °F 21.3 °F 21.2 °F 69% 30.25 in 10.0 mi West 10.4 mph - N/A   Scattered Clouds
10:15 AM 30.2 °F 20.2 °F 21.2 °F 69% 30.25 in 10.0 mi WSW 12.7 mph 19.6 mph N/A   Clear
10:34 AM 30.2 °F 19.8 °F 21.2 °F 69% 30.25 in 10.0 mi WSW 13.8 mph - N/A   Clear
10:55 AM 32.0 °F 23.0 °F 21.2 °F 64% 30.25 in 10.0 mi WSW 11.5 mph 16.1 mph N/A   Clear
11:15 AM 32.0 °F 23.6 °F 21.2 °F 64% 30.25 in 10.0 mi West 10.4 mph - N/A   Clear
11:34 AM 32.0 °F 24.8 °F 19.4 °F 60% 30.26 in 10.0 mi West 8.1 mph - N/A   Clear
11:55 AM 32.0 °F 23.6 °F 19.4 °F 60% 30.26 in 10.0 mi West 10.4 mph 17.3 mph N/A   Clear
12:15 PM 33.8 °F 26.4 °F 19.4 °F 56% 30.25 in 10.0 mi West 9.2 mph - N/A   Clear
12:34 PM 33.8 °F 26.4 °F 19.4 °F 56% 30.24 in 10.0 mi WSW 9.2 mph - N/A   Clear
12:55 PM 33.8 °F 25.3 °F 19.4 °F 56% 30.25 in 10.0 mi West 11.5 mph 17.3 mph N/A   Clear
1:14 PM 33.8 °F 27.0 °F 19.4 °F 56% 30.24 in 10.0 mi SW 8.1 mph - N/A   Clear
1:34 PM 35.6 °F 28.6 °F 19.4 °F 52% 30.24 in 10.0 mi West 9.2 mph - N/A   Clear
1:55 PM 35.6 °F 29.2 °F 19.4 °F 52% 30.24 in 10.0 mi WSW 8.1 mph - N/A   Clear
2:14 PM 35.6 °F 28.6 °F 19.4 °F 52% 30.23 in 10.0 mi WSW 9.2 mph - N/A   Clear
2:34 PM 35.6 °F 28.0 °F 19.4 °F 52% 30.23 in 10.0 mi WSW 10.4 mph - N/A   Clear
2:55 PM 37.4 °F 33.8 °F 19.4 °F 48% 30.22 in 10.0 mi SW 4.6 mph - N/A   Clear
3:14 PM 37.4 °F 32.1 °F 17.6 °F 45% 30.22 in 10.0 mi SW 6.9 mph - N/A   Clear
3:34 PM 37.4 °F 32.1 °F 17.6 °F 45% 30.22 in 10.0 mi SW 6.9 mph - N/A   Clear
3:55 PM 37.4 °F 32.1 °F 17.6 °F 45% 30.21 in 10.0 mi SW 6.9 mph - N/A   Clear
4:14 PM 37.4 °F 32.1 °F 17.6 °F 45% 30.21 in 10.0 mi SW 6.9 mph - N/A   Clear
4:34 PM 37.4 °F 32.1 °F 17.6 °F 45% 30.20 in 10.0 mi SW 6.9 mph - N/A   Clear
4:55 PM 37.4 °F 33.8 °F 17.6 °F 45% 30.19 in 10.0 mi SSW 4.6 mph - N/A   Clear
5:15 PM 37.4 °F 34.9 °F 17.6 °F 45% 30.19 in 10.0 mi South 3.5 mph - N/A   Clear
5:35 PM 35.6 °F 31.7 °F 17.6 °F 48% 30.18 in 10.0 mi South 4.6 mph - N/A   Clear
5:54 PM 35.6 °F 32.8 °F 17.6 °F 48% 30.18 in 10.0 mi South 3.5 mph - N/A   Clear
6:15 PM 33.8 °F 29.6 °F 17.6 °F 52% 30.16 in 10.0 mi South 4.6 mph - N/A   Clear
6:35 PM 33.8 °F 30.8 °F 19.4 °F 56% 30.16 in 10.0 mi South 3.5 mph - N/A   Clear
6:54 PM 33.8 °F 30.8 °F 19.4 °F 56% 30.16 in 10.0 mi South 3.5 mph - N/A   Clear
7:15 PM 33.8 °F 28.6 °F 19.4 °F 56% 30.15 in 10.0 mi South 5.8 mph - N/A   Clear
7:35 PM 35.6 °F 30.7 °F 17.6 °F 48% 30.15 in 10.0 mi South 5.8 mph - N/A   Clear
7:54 PM 35.6 °F 29.9 °F 19.4 °F 52% 30.15 in 10.0 mi South 6.9 mph - N/A   Clear
8:15 PM 35.6 °F 29.2 °F 19.4 °F 52% 30.13 in 10.0 mi South 8.1 mph - N/A   Clear
8:35 PM 35.6 °F 30.7 °F 17.6 °F 48% 30.12 in 10.0 mi South 5.8 mph - N/A   Clear
8:54 PM 35.6 °F 29.2 °F 17.6 °F 48% 30.11 in 10.0 mi South 8.1 mph - N/A   Clear
9:15 PM 37.4 °F 30.3 °F 17.6 °F 45% 30.10 in 10.0 mi South 10.4 mph - N/A   Clear
9:35 PM 37.4 °F 29.8 °F 17.6 °F 45% 30.09 in 10.0 mi SSW 11.5 mph 18.4 mph N/A   Clear
9:54 PM 37.4 °F 30.3 °F 17.6 °F 45% 30.08 in 10.0 mi SSW 10.4 mph 17.3 mph N/A   Clear
10:15 PM 37.4 °F 30.8 °F 17.6 °F 45% 30.08 in 10.0 mi SSW 9.2 mph - N/A   Clear
10:35 PM 37.4 °F 30.3 °F 19.4 °F 48% 30.08 in 10.0 mi SSW 10.4 mph 16.1 mph N/A   Clear
10:54 PM 37.4 °F 31.4 °F 19.4 °F 48% 30.07 in 10.0 mi SSW 8.1 mph - N/A   Clear
11:15 PM 37.4 °F 30.3 °F 19.4 °F 48% 30.07 in 10.0 mi SSW 10.4 mph - N/A   Clear
11:35 PM 37.4 °F 31.4 °F 19.4 °F 48% 30.06 in 10.0 mi SSW 8.1 mph - N/A   Clear
11:54 PM 37.4 °F 31.4 °F 19.4 °F 48% 30.06 in 10.0 mi SSW 8.1 mph - N/A   Clear